GSAT0211 (GALILEO 14)

Last updated on Fri Sep 04 2026 00:02:48 GMT+0000 (Coordinated Universal Time)

1 41549U 16030A 26246.39858434 .00000054 00000+0 00000+0 0 9994 2 41549 55.0784 219.5442 0003740 329.0965 30.8592 1.70473101 64000
UTC large
Height (km)
Speed (km/s)
/
Latitude / Longitude
Inclination (degrees)
Orbital Period (minutes)
Azimuth
Elevation
Range (km)
Doppler Factor

Next 0 passes for location: London (51.5072 / 0.1276)

No passes found over London.
GSAT0211 (GALILEO 14)